Location: Artiguedieu
(43.5000°N, 0.5454°E)
Time: 20:50:51
(UTC+00:00)

Vanguard 1 - Pass Details

Date: 01 August 2021
Orbit: 652 x 3831 km, 34.3° (Epoch: 19 September)

Event Time Altitude Azimuth Distance (km) Brightness Sun altitude
Rises 17:48:47 0° 262° (W) 5,161 15.2 14.9°
Reaches altitude 10° 17:54:39 10° 237° (WSW) 4,834 14.4 13.8°
Maximum altitude 18:00:17 13° 214° (SSW) 5,121 14.1 12.8°
Drops below altitude 10° 18:07:05 10° 191° (S) 5,992 14.1 11.6°
Sets 18:16:54 0° 170° (S) 7,623 14.3 9.9°
